STARLINK-31913, 59667

Orbit data source: Space-Track

STARLINK-31913, 59667 is a payload satellite owned by SpaceX/Seattle (US) in LEO that was launched on Mon, 06 May 2024 UTC via an FALCON 9 launch vehicle from the Air Force Eastern Test Range (AFETR). Payload-class satellites include a variety of spacecraft equipped with specific instruments for various scientific and technological missions. These include communications satellites like Starlink; space stations such as the ISS; scientific satellites like the Hubble; Earth observation satellites from companies like Planet Labs, Umbra, and HawkEye 360; GPS; miniature CubeSats for education and research; and military/defense satellites.

Loading next visibility...
Identifier
59667, 2024-084P
Orbit
LEO
Last TLE update
17 hours ago
Origin
Manufacturer
SpaceX/Seattle
Mission
Operational spacecraft
Bus & Motor
STARLINK V2M, Unknown motor
Mass
730 kg wet, ~700 kg dry
Launch date (UTC)
2024-05-06 (1 year ago)
Launch vehicle
FALCON 9
Launch site
Air Force Eastern Test Range (AFETR)
Object type
Payload
Rocket body
Debris
Shape & HBR
Unknown
Radar Cross Section
Large (>1 m²)

Expand to show TLE details & history

TLE from 17 hours ago
0 STARLINK-31913
1 59667U 24084P   25186.45183275 -.00001906  00000-0 -59778-4 0  9996
2 59667  43.0024 354.4066 0000891 294.1658  65.9100 15.27574994 66601
Epoch: 2025-07-05T10:50Z
TLE epoch observation values (Epoch: 2025-07-05T10:50:38.349Z)
Latitude
-0.00006°
Longitude
-91.94293°
Altitude
482.59 km
Speed
7.626 km/s
True Right ascension
23h 37m 37s
True Declination
0° 00' 00"
Sunlit
Object was in daylight at epoch
Visualization orbit readout
Latitude
-18.0068°
Longitude
-116.25968°
Altitude
486.368 km
Speed
7.623 km/s
Apparent Right ascension
00h 26m 27s
Apparent Declination
-36° 54' 18"
Sunlit
Object is in full shadow
Visualization observer readout
Local Sidereal Time
15:56:27
Azimuth
103.15° ESE
Elevation
-49.347°
Doppler factor
1
Orbital elements
Apogee altitude
485.62 km
Perigee altitude
484.397 km
Semi-major axis
6,863.146 km
Eccentricity
0.00009
Inclination
43.0024°
RAAN
354.4066°
Arg. of periapsis
294.1658°
True anomaly
Unknown
Mean anomaly
65.91°
Eccentric anomaly
Unknown
Mean motion
3.81732 °/min
Orbital period
94.31 mins
BSTAR
-0.000059778
Loading maneuver chart data...
Loading SW <> Apogee altitude chart data...
Loading historical data...
Loading historical data...
Loading historical data...
Loading historical data...
Loading historical data...
Loading historical data...
Loading historical data...

STARLINK-31913 Visibility forecast

Observer location: undefined°, undefined°

Span
Click to sort rows by Start time (UTC) header in descending order
Start Az.
Max El. time (UTC)
Max El. Az.
Max El.
End time (UTC)
End Az.
5 mins2025-07-06 13:42:21.051Z194.31° SSW2025-07-06 13:45:21.051Z136.878° SSE20.234°2025-07-06 13:47:21.051Z99.956° ESE
6 mins2025-07-06 15:21:21.051Z249.778° W2025-07-06 15:23:21.051Z244.192° WSW44.037°2025-07-06 15:27:21.051Z72.143° E
6 mins2025-07-06 17:00:21.051Z287.789° WNW2025-07-06 17:02:21.051Z332.696° NNW36.761°2025-07-06 17:06:21.051Z75.997° E
6 mins2025-07-06 18:39:21.051Z290.192° WNW2025-07-06 18:42:21.051Z82.322° E42.794°2025-07-06 18:45:21.051Z104.08° ESE
4 mins2025-07-06 20:19:21.051Z246.892° WSW2025-07-06 20:20:21.051Z221.805° SW24.261°2025-07-06 20:23:21.051Z158.166° S
|